Back to catalog

OV1-5 DEB

AliveVLEO
NORAD 5599·DEBRIS·🇺🇸 United States

Launched Mar 30, 1966 from Vandenberg Space Force Base

Loading…

Next Passes (next 24 hours)

TLE

FreshSource: Space-Track

Epoch: Sep 14, 2026, 05:16 UTC

1 05599U 66025G   26257.22006312  .00091499  00000-0  39892-2 0  9990
2 05599 144.6060  18.7746 0012687 358.8129   1.2562 15.20454086118151

Track OV1-5 DEB in real time with AllMySat

Download on the App Store